METAR Formatted Surface Weather Observation
Issued by NWS

Home | Current Version | Previous Version | Text Only | Print | Product List | Glossary On
Versions: 1 2 3 4 5 6 7 8 9 10 11 12 13 14 15 16 17 18 19 20 21
896
SAUS43 KUNR 240758
MTRD07
METAR KD07 240756Z AUTO 31012KT 02/M03 A3038 RMK AO1 SLP304
T00221033



USA.gov is the U.S. government's official web portal to all federal, state and local government web resources and services.